Temperature
10 10 10 10 9 9 9 8 8 7 7 7 7 6 6 6 6 6 5 5 5 5 5 4 4 4 4 4 4 3 3 3 3 3 3 3 3 4 4 4 4 4 4
9 9 9 8 8 8 7 7 7 6 6 6 6 6 5 5 5 5 4 4 4 4 4 4 4 3 3 3 3 3 3 3 2 2 3 3 3 3 3 3 3 3 3
8 8 8 7 7 7 6 6 6 6 5 5 5 5 4 4 4 4 4 4 4 3 3 3 3 3 3 3 3 2 2 2 2 2 2 3 3 3 3 3 3 3 3
7 7 7 6 6 6 5 5 5 5 5 4 4 4 4 3 3 3 3 3 3 3 3 2 2 2 2 2 2 2 2 2 2 2 2 2 2 2 2 2 2 2 2
6 6 6 5 5 5 5 5 4 4 4 4 3 3 3 3 3 2 2 2 2 2 2 2 2 2 2 2 2 2 2 2 2 2 2 2 2 2 2 2 1 2 2
6 5 5 5 5 4 4 4 4 3 3 3 3 3 2 2 2 2 2 2 2 1 1 1 1 1 1 1 1 1 1 1 1 1 1 1 1 1 1 1 1 1 1
5 5 4 4 4 4 4 3 3 3 3 3 2 2 2 2 2 1 1 1 1 1 1 1 1 1 1 1 1 1 2 1 1 1 1 1 1 1 1 1 1 1 1
4 4 4 4 4 3 3 3 3 3 3 2 2 2 2 1 1 1 1 1 1 0 0 0 0 1 1 1 1 2 2 2 2 1 1 1 1 1 1 1 1 1 1
4 4 4 4 3 3 3 3 3 3 3 2 2 2 2 1 1 1 0 0 0 0 0 0 0 1 1 1 1 1 2 2 2 2 1 1 1 1 1 1 1 1 1
4 4 4 3 3 3 3 3 3 3 3 2 2 2 1 1 1 0 0 -0 0 0 0 0 1 1 1 1 1 1 2 2 2 2 2 2 1 1 1 1 1 1 0
4 4 4 4 3 3 3 3 3 3 2 2 2 1 1 1 0 -0 -0 -0 -0 -0 0 1 1 1 1 1 1 2 2 2 2 2 2 1 1 1 1 1 1 0 0
4 4 4 4 4 4 3 3 3 3 2 2 2 1 1 0 -0 -0 -1 -1 -0 -0 0 1 1 1 1 2 2 2 2 2 2 2 1 1 1 1 1 1 1 0 0
4 4 4 4 4 4 4 3 3 3 2 2 2 1 1 0 -0 -0 -0 -0 -0 0 0 1 1 1 2 2 2 2 2 2 2 2 1 1 1 1 1 1 1 1 0
4 4 4 4 4 4 4 3 3 3 2 2 1 1 0 -0 -0 -0 -0 0 0 0 1 1 1 2 2 2 2 2 2 2 2 2 1 1 1 1 1 1 1 0 0
4 4 4 4 4 4 4 3 3 3 2 1 1 1 0 -0 -0 -0 -0 0 0 1 1 1 2 2 2 2 2 2 3 3 2 2 2 2 1 1 1 1 1 0 0
5 5 5 5 4 4 4 3 3 2 2 1 1 0 0 -0 -0 -0 -0 0 1 1 1 2 2 2 2 2 3 3 3 3 3 2 2 2 2 1 1 1 1 1 0
5 5 5 5 4 4 4 3 3 2 2 1 1 0 0 -0 -0 -0 0 0 1 1 2 2 2 2 3 3 3 3 3 3 3 3 3 2 2 2 2 2 1 1 1
5 5 5 5 4 4 4 3 3 2 2 1 1 0 0 0 0 0 0 1 1 2 2 2 2 2 3 3 3 3 3 3 3 3 3 3 3 3 2 2 2 1 1
5 5 5 5 4 4 4 3 3 2 2 1 1 1 0 0 0 1 1 1 1 2 2 2 2 3 3 3 3 3 3 4 4 4 4 4 3 3 3 3 2 2 2
5 5 5 5 4 4 4 3 3 2 2 1 1 1 0 1 1 1 1 1 2 2 2 2 3 3 3 3 3 4 4 4 4 4 4 4 4 4 3 3 3 3 2
6 5 5 5 4 4 4 3 3 2 2 1 1 1 1 1 1 1 1 2 2 2 2 3 3 3 3 4 4 4 4 4 4 4 4 4 4 4 4 4 3 3 3
6 5 5 5 4 4 3 3 3 2 2 1 1 1 1 1 1 1 1 2 2 2 2 3 3 3 3 4 4 4 4 4 4 5 5 5 5 5 4 4 4 4 3
6 6 5 5 4 4 3 3 3 2 2 1 1 1 1 1 1 1 2 2 2 2 3 3 3 3 3 3 4 4 4 4 4 5 5 5 5 5 5 4 4 4 4
6 6 5 5 4 4 3 3 2 2 2 1 1 1 1 1 1 1 2 2 2 2 3 3 3 3 3 4 4 4 4 4 4 5 5 5 5 5 5 4 4 4 4
6 5 5 4 4 4 3 3 2 2 2 1 1 1 1 1 1 1 2 2 2 2 2 3 3 3 3 4 4 4 4 4 4 4 5 5 5 5 5 5 4 4 4
5 5 5 4 4 3 3 3 2 2 1 1 1 1 1 1 1 1 2 2 2 2 2 3 3 3 3 4 4 4 4 4 4 4 4 5 5 5 4 4 4 4 4
Wind_Speed
14 14 13 12 12 11 11 10 9 8 8 8 7 8 9 9 8 8 8 7 7 7 6 5 5 3 3 3 2 2 1 1 3 4 3 4 5 7 12 15 15 15 15
12 13 13 12 11 11 10 9 8 9 8 8 8 9 9 9 8 8 8 8 7 6 6 6 6 5 4 3 2 3 2 2 2 4 4 4 6 7 7 7 12 13 14
12 12 12 11 11 10 10 9 9 8 8 9 9 9 8 8 8 7 7 6 6 6 6 6 6 5 5 4 4 4 3 3 2 4 5 4 5 6 6 8 8 8 14
11 11 11 10 9 9 9 8 8 7 8 8 7 7 7 6 6 6 6 6 7 7 6 6 6 6 6 6 4 4 4 4 5 5 6 6 6 6 5 6 8 6 8
10 10 8 8 8 8 8 8 7 7 7 6 6 5 4 4 4 5 5 7 7 8 8 7 7 9 6 3 3 3 4 4 5 6 7 7 7 6 6 5 8 8 9
9 8 8 8 8 7 7 6 6 6 5 5 5 4 3 2 3 6 6 5 6 7 8 8 8 6 6 7 9 9 8 6 6 6 7 8 9 8 7 7 7 7 6
8 7 7 7 6 5 5 5 5 4 4 3 2 2 1 1 2 6 9 6 6 7 7 7 7 6 6 4 8 11 12 14 12 8 8 9 9 9 8 9 8 7 8
7 6 5 5 5 4 5 4 3 2 1 0 1 2 2 3 3 5 8 6 6 7 7 7 6 6 5 6 7 9 9 10 11 8 8 10 10 10 8 8 8 7 7
6 5 4 5 4 4 3 2 1 1 1 1 2 2 3 4 5 5 6 5 6 8 8 8 8 7 9 10 8 10 11 11 12 13 15 16 17 17 11 5 5 5 7
4 3 3 3 3 2 0 1 1 1 2 2 2 2 2 3 4 5 6 4 5 7 8 8 10 10 12 13 9 8 10 11 10 12 11 12 10 10 10 4 4 5 5
3 2 1 1 1 1 1 1 1 2 3 3 4 3 2 2 3 6 9 4 5 7 7 7 8 13 16 16 12 7 10 11 9 8 8 7 7 6 5 5 4 4 5
2 1 0 1 1 1 0 1 2 3 4 4 4 4 3 3 4 7 11 10 9 5 6 7 9 15 17 16 11 10 13 10 5 5 5 5 5 5 5 6 7 6 5
1 1 2 2 2 1 1 1 1 3 3 3 3 3 3 3 5 9 11 12 13 7 7 13 15 16 14 10 11 14 11 5 5 4 5 4 4 5 5 5 6 6 7
1 3 3 3 3 2 0 2 2 2 2 2 2 3 3 4 5 6 7 7 10 9 9 11 14 13 10 9 9 8 6 5 4 4 4 4 4 4 4 3 4 4 4
2 3 3 3 2 1 1 1 2 2 4 3 1 1 2 4 6 9 8 7 8 8 8 6 5 7 8 8 8 7 6 6 5 4 3 4 4 4 4 4 3 3 4
3 3 3 2 1 2 3 3 3 2 3 4 4 2 3 5 11 13 13 13 13 12 6 5 7 7 7 7 8 7 6 6 5 4 4 4 4 4 4 4 3 3 4
4 4 3 1 1 2 4 4 2 1 2 4 5 5 6 10 12 12 13 13 11 10 5 6 7 7 8 8 7 6 5 6 5 4 4 4 4 4 3 4 4 4 4
4 4 2 2 2 3 4 4 3 2 1 3 4 6 9 10 11 11 12 9 7 7 5 6 7 8 8 7 7 6 6 6 5 5 5 5 4 3 4 4 4 4 4
2 2 1 2 2 3 4 3 3 2 1 1 2 4 7 8 8 9 8 4 4 6 7 7 7 7 7 7 7 6 6 6 6 5 5 5 5 4 4 4 4 5 4
1 1 3 3 3 3 3 3 3 2 1 0 2 3 4 4 4 5 5 4 5 6 7 7 7 7 7 7 7 7 7 6 7 6 6 6 5 4 4 4 4 3 3
1 1 4 4 3 3 3 3 3 3 2 1 1 2 3 2 4 5 5 5 5 6 6 7 7 7 7 7 7 8 8 7 6 6 7 7 6 5 4 3 3 3 3
2 3 3 4 3 3 3 3 3 3 2 1 1 3 5 3 4 4 5 5 5 5 5 4 5 5 5 6 7 8 8 7 7 8 7 7 7 5 4 4 4 3 3
1 3 3 3 3 4 4 3 3 3 2 2 1 2 3 4 4 5 5 5 5 6 9 9 6 7 11 12 11 7 7 7 7 7 7 7 6 5 4 4 4 4 4
2 4 5 4 4 4 4 4 3 3 3 2 2 2 3 4 4 5 5 4 6 8 11 12 11 12 15 15 15 15 14 14 12 9 7 5 6 5 5 4 4 5 4
4 5 5 5 5 5 5 4 4 3 3 2 2 2 3 4 5 5 5 6 7 8 11 14 14 15 17 17 18 19 20 19 17 14 11 6 7 7 6 6 5 5 6
5 6 5 5 5 5 5 5 4 4 3 2 2 2 2 4 5 5 5 5 6 8 11 14 16 18 19 19 21 23 23 22 20 18 14 8 7 7 7 6 8 7 7
Wind_Direction
74 75 76 75 76 77 78 78 79 77 72 71 70 66 61 55 51 52 45 37 36 25 20 20 5 351 354 345 349 353 326 189 248 276 270 288 301 305 311 311 311 304 299
76 77 75 72 72 72 72 69 70 70 66 68 68 68 64 58 50 48 37 30 25 14 2 357 343 340 332 320 316 308 294 269 237 284 292 297 295 295 293 299 305 305 301
76 76 73 70 70 69 66 64 65 67 65 68 73 74 68 60 50 39 30 20 8 355 344 336 325 326 314 301 292 288 287 293 265 273 289 290 290 294 300 298 292 292 299
77 76 74 70 69 68 66 65 65 66 69 72 78 80 77 66 52 33 17 4 350 338 328 321 315 307 288 282 281 282 284 294 295 292 290 292 288 288 288 291 297 291 293
82 78 76 74 72 70 67 65 62 62 68 72 80 83 81 70 47 30 3 352 339 329 324 318 311 315 320 310 308 292 289 287 292 292 292 295 295 299 295 284 293 296 291
85 83 79 78 75 71 68 63 62 59 60 65 77 84 75 63 31 13 2 340 331 326 320 318 316 321 337 344 339 329 315 299 292 284 288 290 291 287 286 288 290 299 297
85 84 85 86 80 73 74 67 58 52 57 59 76 109 127 270 329 352 357 355 336 328 322 318 324 330 338 327 324 323 315 306 294 280 278 281 284 286 287 291 286 283 282
82 82 83 85 80 72 66 55 38 35 52 26 250 209 219 254 277 334 351 355 340 333 328 324 320 312 315 314 311 311 304 297 291 286 265 272 279 281 273 273 277 281 274
87 82 82 87 81 69 59 28 356 352 325 278 263 243 237 259 272 312 350 341 332 327 324 326 324 307 299 313 313 307 307 304 302 293 287 287 288 291 287 278 284 292 300
105 99 87 87 89 91 102 309 310 315 305 305 300 289 263 261 275 300 335 332 325 322 320 318 319 312 307 310 303 293 296 299 305 312 311 313 308 306 308 280 269 287 296
131 114 83 74 135 177 228 314 332 349 359 353 345 339 336 323 322 331 340 334 315 313 315 315 312 312 312 309 304 277 273 285 296 299 304 308 314 315 312 306 282 264 283
132 127 257 289 248 178 175 358 18 33 30 14 12 6 360 8 16 351 348 342 339 315 305 306 307 310 313 314 314 305 307 307 297 306 313 314 316 319 315 311 312 306 285
150 275 276 288 290 256 192 155 58 52 56 34 29 11 346 345 341 343 340 335 334 326 304 310 313 314 320 321 319 321 324 323 321 322 320 309 301 302 312 320 327 330 327
230 272 278 285 285 287 230 152 133 113 92 64 33 357 330 323 325 332 331 327 329 328 322 319 318 319 328 324 323 326 324 317 317 313 307 306 315 326 329 328 327 331 334
259 280 291 284 263 231 134 119 153 177 174 159 180 261 319 323 313 320 321 319 317 310 316 317 329 337 344 340 335 329 326 333 336 327 319 321 325 331 324 323 328 331 334
261 279 279 276 241 175 134 81 57 144 150 160 186 215 274 289 312 323 326 325 326 329 333 332 335 337 334 332 331 328 327 333 331 325 323 319 318 322 324 328 337 340 338
239 260 272 255 184 166 162 163 186 308 297 280 280 296 308 316 324 329 332 332 337 347 353 340 339 336 335 333 331 327 321 321 323 325 320 315 313 314 320 329 336 338 338
252 254 234 198 179 170 171 176 179 185 281 310 304 302 314 321 328 335 339 346 349 351 344 338 336 333 333 334 334 333 330 333 336 334 327 319 315 310 313 321 326 331 333
266 238 187 161 151 151 154 151 158 169 192 299 328 330 330 331 335 343 353 2 340 336 337 338 335 335 335 336 337 337 336 335 336 334 331 326 320 316 313 314 321 332 338
312 180 141 133 123 129 138 140 146 146 134 39 334 323 333 353 356 347 349 341 338 335 337 339 338 340 341 342 344 344 343 343 343 340 333 330 327 323 319 319 319 321 321
250 167 139 127 127 138 140 143 146 144 149 169 299 314 343 349 339 336 338 338 335 334 335 338 341 345 348 349 350 349 347 341 339 336 334 333 332 333 329 326 321 322 327
182 175 162 154 148 144 137 135 136 138 142 129 330 340 358 3 344 338 335 332 329 324 328 333 344 345 343 346 346 346 344 340 337 337 335 333 334 339 346 350 351 353 352
130 154 150 145 142 132 117 119 124 126 115 96 49 8 1 357 349 342 337 336 339 350 2 9 3 357 355 351 349 344 336 325 314 309 317 327 338 346 352 355 359 8 16
111 135 137 134 126 120 119 118 119 122 113 90 62 28 5 355 348 346 347 347 4 15 21 19 13 2 357 357 354 352 345 336 329 321 318 333 351 358 6 11 10 14 19
102 123 124 126 126 125 120 117 117 115 104 87 72 41 10 1 356 355 357 13 25 25 21 19 14 8 360 357 357 354 355 1 6 5 0 2 12 15 18 18 21 27 30
100 119 119 117 120 125 126 124 123 122 113 98 76 48 21 8 4 7 10 26 31 26 21 16 12 10 7 3 359 2 8 13 17 21 24 23 26 24 25 28 30 35 39
Height
1530 1531 1532 1533 1534 1535 1536 1537 1538 1539 1540 1540 1540 1541 1540 1540 1540 1539 1538 1537 1536 1535 1534 1532 1531 1529 1528 1526 1524 1523 1521 1519 1516 1514 1513 1510 1508 1505 1503 1500 1497 1495 1492
1535 1535 1536 1537 1538 1538 1539 1540 1540 1541 1541 1541 1541 1541 1541 1540 1540 1539 1538 1536 1535 1533 1531 1530 1528 1526 1525 1523 1522 1520 1518 1516 1513 1510 1507 1505 1503 1500 1497 1494 1491 1489 1486
1539 1539 1539 1540 1541 1541 1542 1542 1542 1542 1542 1542 1542 1542 1542 1541 1540 1538 1537 1535 1533 1531 1529 1527 1525 1523 1522 1521 1519 1517 1515 1513 1510 1507 1503 1500 1498 1495 1492 1489 1486 1483 1480
1542 1542 1542 1543 1544 1544 1544 1544 1544 1544 1544 1544 1543 1543 1542 1541 1539 1537 1535 1533 1531 1528 1526 1524 1522 1521 1519 1518 1516 1514 1511 1509 1506 1503 1499 1496 1493 1490 1487 1483 1479 1476 1472
1545 1545 1545 1546 1547 1547 1546 1546 1546 1546 1545 1545 1544 1543 1542 1540 1538 1536 1534 1531 1528 1525 1523 1521 1520 1518 1517 1515 1513 1510 1508 1504 1501 1498 1494 1491 1488 1485 1482 1478 1474 1470 1466
1547 1548 1548 1549 1549 1549 1548 1548 1547 1547 1546 1545 1544 1543 1542 1540 1537 1535 1532 1529 1526 1523 1521 1519 1517 1515 1514 1512 1510 1508 1505 1501 1497 1494 1490 1487 1483 1481 1477 1474 1470 1465 1460
1550 1550 1551 1551 1551 1550 1550 1549 1548 1547 1547 1545 1544 1543 1541 1539 1537 1534 1531 1527 1524 1522 1519 1516 1514 1513 1511 1509 1506 1504 1501 1498 1494 1491 1486 1483 1479 1476 1472 1469 1465 1461 1457
1553 1553 1553 1553 1552 1552 1551 1550 1549 1548 1547 1546 1544 1543 1541 1538 1536 1533 1530 1526 1523 1520 1517 1514 1512 1510 1508 1506 1502 1499 1496 1494 1490 1487 1483 1479 1476 1472 1468 1465 1461 1457 1453
1555 1555 1554 1554 1554 1553 1552 1551 1550 1549 1548 1546 1544 1542 1540 1537 1534 1531 1528 1524 1521 1517 1515 1513 1510 1508 1506 1503 1499 1496 1492 1490 1487 1483 1480 1476 1472 1468 1465 1461 1457 1453 1449
1557 1556 1556 1555 1555 1554 1553 1552 1551 1549 1547 1546 1543 1541 1539 1536 1533 1530 1526 1522 1519 1515 1513 1511 1509 1506 1503 1500 1497 1493 1489 1486 1483 1479 1476 1472 1469 1465 1462 1458 1455 1451 1446
1558 1558 1557 1556 1555 1555 1553 1552 1551 1549 1547 1545 1542 1540 1537 1534 1531 1528 1524 1520 1517 1514 1511 1509 1507 1504 1501 1498 1495 1492 1488 1484 1480 1477 1473 1469 1466 1462 1459 1456 1452 1449 1445
1559 1559 1558 1557 1556 1555 1554 1552 1551 1549 1547 1544 1542 1539 1536 1533 1530 1526 1523 1519 1516 1513 1510 1508 1505 1503 1500 1497 1494 1490 1487 1483 1479 1476 1472 1468 1464 1461 1457 1454 1451 1447 1443
1560 1559 1558 1557 1556 1555 1553 1552 1550 1549 1546 1544 1541 1538 1535 1532 1528 1525 1522 1519 1516 1513 1510 1508 1505 1502 1499 1496 1493 1489 1486 1482 1479 1475 1471 1467 1464 1461 1457 1454 1450 1447 1443
1560 1559 1558 1557 1556 1554 1553 1551 1550 1548 1546 1543 1540 1537 1534 1530 1527 1524 1521 1518 1516 1513 1511 1508 1506 1503 1499 1496 1493 1490 1486 1482 1479 1475 1472 1468 1465 1461 1458 1454 1450 1446 1442
1560 1559 1557 1556 1555 1553 1552 1551 1549 1547 1545 1543 1540 1536 1533 1529 1526 1523 1521 1518 1516 1514 1511 1509 1506 1503 1500 1497 1493 1490 1487 1483 1480 1476 1473 1470 1466 1463 1459 1455 1451 1447 1443
1559 1558 1556 1555 1554 1552 1551 1549 1548 1546 1544 1542 1539 1536 1533 1530 1527 1524 1522 1520 1518 1515 1513 1510 1507 1503 1500 1498 1494 1491 1488 1484 1481 1478 1475 1471 1468 1464 1460 1457 1453 1449 1445
1558 1557 1555 1554 1553 1551 1550 1548 1547 1546 1544 1541 1539 1536 1533 1530 1527 1525 1523 1521 1519 1517 1514 1511 1508 1505 1503 1499 1496 1493 1489 1486 1483 1480 1477 1473 1470 1466 1462 1459 1455 1451 1447
1557 1556 1554 1553 1552 1550 1549 1548 1546 1545 1543 1541 1539 1536 1533 1531 1528 1526 1524 1523 1521 1518 1516 1514 1511 1508 1505 1501 1498 1495 1491 1488 1485 1482 1479 1475 1472 1468 1465 1461 1457 1454 1450
1555 1554 1553 1552 1551 1550 1549 1548 1546 1545 1543 1541 1539 1537 1534 1532 1530 1528 1526 1525 1522 1520 1518 1516 1513 1510 1507 1503 1500 1497 1494 1490 1487 1484 1481 1477 1474 1470 1467 1463 1460 1456 1453
1554 1553 1552 1552 1551 1550 1549 1548 1546 1545 1544 1542 1540 1538 1535 1533 1531 1530 1528 1526 1525 1523 1520 1518 1515 1512 1509 1506 1503 1499 1496 1492 1489 1486 1483 1479 1476 1472 1469 1466 1462 1459 1456
1553 1553 1552 1551 1551 1550 1549 1548 1547 1546 1544 1543 1541 1539 1537 1535 1533 1532 1530 1528 1527 1525 1522 1520 1517 1514 1511 1508 1505 1502 1498 1495 1492 1488 1485 1482 1478 1475 1471 1468 1465 1462 1459
1552 1552 1551 1551 1551 1550 1549 1548 1547 1546 1545 1544 1542 1540 1539 1537 1536 1534 1532 1530 1529 1527 1524 1522 1519 1517 1514 1511 1507 1504 1501 1497 1494 1491 1488 1484 1481 1478 1474 1471 1468 1465 1462
1552 1551 1551 1551 1551 1550 1549 1549 1548 1547 1546 1545 1543 1542 1540 1539 1538 1536 1534 1533 1531 1529 1526 1524 1521 1519 1516 1513 1510 1507 1503 1500 1497 1493 1490 1487 1484 1481 1477 1474 1471 1468 1466
1551 1551 1551 1551 1551 1550 1550 1549 1549 1548 1547 1546 1545 1543 1542 1541 1539 1538 1536 1534 1533 1530 1528 1526 1523 1521 1518 1515 1513 1509 1506 1503 1499 1496 1493 1490 1487 1484 1481 1478 1475 1473 1470
1552 1551 1551 1551 1551 1551 1550 1550 1549 1549 1548 1547 1546 1545 1544 1543 1541 1540 1538 1536 1534 1532 1530 1527 1524 1522 1520 1517 1515 1511 1508 1505 1502 1499 1496 1494 1490 1488 1485 1482 1479 1477 1474
1552 1552 1552 1552 1552 1552 1551 1551 1550 1550 1549 1548 1547 1546 1545 1544 1543 1542 1540 1538 1536 1534 1531 1528 1526 1523 1521 1519 1516 1514 1511 1508 1505 1502 1499 1496 1494 1491 1488 1486 1483 1481 1479